Weather History for Anaktuvuk Pass, AK

Change the Weather History Date:

Friday, November 23, 2012

  Actual Average Record
Temperature  
Mean Temperature -16 °F -  
Max Temperature -11 °F 2 °F 32 °F (2007)
Min Temperature -20 °F -3 °F -29 °F (2011)
Degree Days  
Heating Degree Days 80    
Moisture  
Dew Point -26 °F    
Average Humidity 62    
Maximum Humidity 76    
Minimum Humidity 58    
Precipitation  
Precipitation 0.00 in - - ()
Sea Level Pressure  
Sea Level Pressure 30.12 in    
Wind  
Wind Speed 1 mph (North)    
Max Wind Speed 6 mph    
Max Gust Speed -    
Visibility 10 miles    
Events      
Averages and records for this station are not official NWS values.
T = Trace of Precipitation, MM = Missing Value Source: NWS Daily Summary

Daily Weather History Graph

Daily Weather History Graph

Search for Another Location

Airport:

Trip Planner

Search our weather history database for the weather conditions in past years. The results will help you decide how hot, cold, wet, or windy it might be!

Date:

Astronomy

Nov. 23, 2012 Rise Set
Actual Time 11:06 AM AKST 2:40 PM AKST
Civil Twilight 9:30 AM AKST 4:15 PM AKST
Nautical Twilight 8:12 AM AKST 5:34 PM AKST
Astronomical Twilight 7:04 AM AKST 6:42 PM AKST
Moon 2:09 PM AKST (11/23) 4:14 AM AKST (11/23)
Length of Visible Light 6h 44m
Length of Day
3h 33m
Waxing Gibbous, 81% of the Moon is Illuminated
Nov 23
Waxing Gibbous
Nov 28
Full
Dec 6
Last Quarter
Dec 12
New
Dec 19
First Quarter

Hourly Weather History & Observations

Time (AKST) Temp. Windchill Dew Point Humidity Pressure Visibility Wind Dir Wind Speed Gust Speed Precip Events Conditions
12:16 AM -16.6 °F - -25.6 °F 64% 30.15 in 10.0 mi Calm Calm - N/A   Clear
12:36 AM -18.4 °F -28.9 °F - N/A% 30.15 in 10.0 mi North 3.5 mph - N/A   Clear
12:56 AM -16.6 °F -26.8 °F -25.6 °F 64% 30.15 in 10.0 mi North 3.5 mph - N/A   Clear
1:16 AM -18.4 °F - -27.4 °F 63% 30.15 in 10.0 mi Calm Calm - N/A   Clear
1:36 AM -18.4 °F - -27.4 °F 63% 30.15 in 10.0 mi Calm Calm - N/A   Clear
1:56 AM -18.4 °F - - N/A% 30.15 in 10.0 mi Calm Calm - N/A   Clear
2:16 AM -20.2 °F - -29.2 °F 63% 30.15 in 10.0 mi Calm Calm - N/A   Clear
2:36 AM -18.4 °F -28.9 °F - N/A% 30.14 in 10.0 mi North 3.5 mph - N/A   Clear
3:16 AM -16.6 °F -29.3 °F -27.4 °F 58% 30.14 in 10.0 mi NNW 4.6 mph - N/A   Clear
3:36 AM -18.4 °F -33.4 °F -29.2 °F 58% 30.13 in 10.0 mi NNE 5.8 mph - N/A   Clear
3:56 AM -18.4 °F -28.9 °F -27.4 °F 63% 30.13 in 10.0 mi NNE 3.5 mph - N/A   Clear
4:16 AM -16.6 °F -26.8 °F -25.6 °F 64% 30.12 in 10.0 mi NNW 3.5 mph - N/A   Clear
4:36 AM -18.4 °F - -27.4 °F 63% 30.12 in 10.0 mi Calm Calm - N/A   Clear
4:56 AM -18.4 °F - -27.4 °F 63% 30.12 in 10.0 mi Calm Calm - N/A   Clear
5:16 AM -20.2 °F - -29.2 °F 63% 30.12 in 10.0 mi Calm Calm - N/A   Clear
5:36 AM -16.6 °F - -27.4 °F 58% 30.12 in 10.0 mi Calm Calm - N/A   Clear
5:56 AM -16.6 °F -26.8 °F -23.8 °F 70% 30.12 in 10.0 mi North 3.5 mph - N/A   Clear
6:16 AM -18.4 °F - -29.2 °F 58% 30.11 in 10.0 mi Calm Calm - N/A   Clear
6:36 AM -18.4 °F - -27.4 °F 63% 30.11 in 10.0 mi Calm Calm - N/A   Clear
6:56 AM -18.4 °F - -27.4 °F 63% 30.11 in 10.0 mi Calm Calm - N/A   Clear
7:16 AM -18.4 °F - -27.4 °F 63% 30.10 in 10.0 mi Calm Calm - N/A   Clear
7:36 AM -18.4 °F - -29.2 °F 58% 30.11 in 10.0 mi Calm Calm - N/A   Clear
7:56 AM -18.4 °F - -27.4 °F 63% 30.11 in 10.0 mi Calm Calm - N/A   Clear
8:16 AM -18.4 °F - -29.2 °F 58% 30.11 in 10.0 mi Calm Calm - N/A   Clear
8:36 AM -18.4 °F - -27.4 °F 63% 30.11 in 10.0 mi Calm Calm - N/A   Clear
8:56 AM -18.4 °F - -27.4 °F 63% 30.10 in 10.0 mi Calm Calm - N/A   Clear
9:16 AM -18.4 °F - - N/A% 30.10 in 10.0 mi Calm Calm - N/A   Clear
9:36 AM -16.6 °F - -27.4 °F 58% 30.10 in 10.0 mi Calm Calm - N/A   Clear
9:56 AM -18.4 °F - -23.8 °F 76% 30.10 in 10.0 mi Calm Calm - N/A   Clear
10:16 AM -16.6 °F - -25.6 °F 64% 30.10 in 10.0 mi Calm Calm - N/A   Clear
10:36 AM -16.6 °F - -25.6 °F 64% 30.10 in 10.0 mi Calm Calm - N/A   Clear
10:56 AM -16.6 °F -26.8 °F -25.6 °F 64% 30.11 in 10.0 mi North 3.5 mph - N/A   Clear
11:16 AM -16.6 °F -29.3 °F -25.6 °F 64% 30.11 in 10.0 mi North 4.6 mph - N/A   Clear
11:36 AM -18.4 °F -28.9 °F -29.2 °F 58% 30.12 in 10.0 mi NNW 3.5 mph - N/A   Clear
11:56 AM -20.2 °F - -27.4 °F 69% 30.11 in 10.0 mi Calm Calm - N/A   Clear
12:16 PM -18.4 °F - -29.2 °F 58% 30.11 in 8.0 mi Calm Calm - N/A   Clear
12:36 PM -20.2 °F - -29.2 °F 63% 30.11 in 10.0 mi Calm Calm - N/A   Clear
12:56 PM -18.4 °F - -29.2 °F 58% 30.11 in 10.0 mi Calm Calm - N/A   Clear
1:16 PM -16.6 °F - -25.6 °F 64% 30.12 in 8.0 mi Calm Calm - N/A   Clear
1:36 PM -16.6 °F - -27.4 °F 58% 30.12 in 10.0 mi Calm Calm - N/A   Clear
1:56 PM -18.4 °F -28.9 °F -27.4 °F 63% 30.12 in 10.0 mi SSE 3.5 mph - N/A   Clear
2:16 PM -16.6 °F - -25.6 °F 64% 30.12 in 10.0 mi Calm Calm - N/A   Clear
2:36 PM -14.8 °F - -25.6 °F 58% 30.12 in 10.0 mi Calm Calm - N/A   Clear
2:56 PM -16.6 °F - -27.4 °F 58% 30.12 in 3.0 mi Calm Calm - N/A   Clear
3:16 PM -18.4 °F - -29.2 °F 58% 30.12 in 10.0 mi Calm Calm - N/A   Clear
3:36 PM -18.4 °F - -27.4 °F 63% 30.11 in 10.0 mi Calm Calm - N/A   Clear
3:56 PM -14.8 °F - -22.0 °F 70% 30.11 in 10.0 mi Calm Calm - N/A   Clear
4:16 PM -14.8 °F - -25.6 °F 58% 30.10 in 10.0 mi Calm Calm - N/A   Clear
4:36 PM -14.8 °F - -25.6 °F 58% 30.10 in 10.0 mi Calm Calm - N/A   Clear
4:56 PM -14.8 °F - -25.6 °F 58% 30.10 in 10.0 mi Calm Calm - N/A   Clear
5:16 PM -16.6 °F - -25.6 °F 64% 30.11 in 10.0 mi Calm Calm - N/A   Clear
5:36 PM -16.6 °F - -27.4 °F 58% 30.10 in 10.0 mi Calm Calm - N/A   Clear
5:56 PM -16.6 °F - -27.4 °F 58% 30.10 in 10.0 mi Calm Calm - N/A   Clear
6:16 PM -18.4 °F -31.4 °F -27.4 °F 63% 30.11 in 5.0 mi SSW 4.6 mph - N/A   Clear
6:36 PM -16.6 °F - -25.6 °F 64% 30.11 in 10.0 mi Calm Calm - N/A   Clear
6:56 PM -14.8 °F -24.8 °F -23.8 °F 64% 30.10 in 10.0 mi SW 3.5 mph - N/A   Clear
7:16 PM -16.6 °F - -23.8 °F 70% 30.10 in 10.0 mi Calm Calm - N/A   Clear
7:36 PM -16.6 °F - -25.6 °F 64% 30.10 in 10.0 mi Calm Calm - N/A   Clear
7:56 PM -14.8 °F - -25.6 °F 58% 30.11 in 10.0 mi Calm Calm - N/A   Clear
8:16 PM -14.8 °F - -25.6 °F 58% 30.11 in 10.0 mi Calm Calm - N/A   Clear
8:36 PM -13.0 °F - -20.2 °F 70% 30.11 in 10.0 mi Calm Calm - N/A   Clear
8:56 PM -13.0 °F - -22.0 °F 64% 30.11 in 10.0 mi Calm Calm - N/A   Clear
9:16 PM -13.0 °F - -23.8 °F 59% 30.11 in 10.0 mi Calm Calm - N/A   Clear
9:36 PM -13.0 °F - -22.0 °F 64% 30.11 in 10.0 mi Calm Calm - N/A   Clear
9:56 PM -13.0 °F - -23.8 °F 59% 30.11 in 10.0 mi Calm Calm - N/A   Clear
10:16 PM -13.0 °F - -23.8 °F 59% 30.11 in 10.0 mi Calm Calm - N/A   Clear
10:36 PM -13.0 °F - -23.8 °F 59% 30.11 in 10.0 mi Calm Calm - N/A   Clear
10:56 PM -11.2 °F - -20.2 °F 64% 30.11 in 10.0 mi Calm Calm - N/A   Clear
11:16 PM -11.2 °F - -20.2 °F 64% 30.11 in 10.0 mi Calm Calm - N/A   Clear
11:36 PM -11.2 °F - -20.2 °F 64% 30.11 in 10.0 mi Calm Calm - N/A   Clear
11:56 PM -11.2 °F - -20.2 °F 64% 30.11 in 10.0 mi Calm Calm - N/A   Clear